Location: La Pernelle
(49.6188°N, 1.2999°W)
Time: 16:29:03
(UTC+00:00)

Cosmos 405 - Pass Details

Date: 12 June 2021
Orbit: 446 x 459 km, 81.3° (Epoch: 31 July)

Event Time Altitude Azimuth Distance (km) Brightness Sun altitude
Rises 23:10:58 0° 341° (NNW) 2,470 8.5 -16.2°
Reaches altitude 10° 23:13:08 10° 333° (NNW) 1,590 6.9 -16.3°
Maximum altitude 23:16:21 37° 265° (W) 721 3.9 -16.4°
Enters shadow 23:17:37 26° 220° (SW) 909 4.1 -16.4°
